Regional Weather Roundup
Issued by NWS

Home | Current Version | Previous Version | Graphics & Text | Print | Product List | Glossary On
Versions: 1 2 3 4 5 6 7 8 9 10 11 12 13 14 15 16 17 18 19 20 21 22 23 24 25 26
000
ASUS45 KSLC 222110
RWRUT

UTAH REGIONAL WEATHER ROUNDUP
NATIONAL WEATHER SERVICE SALT LAKE CITY UT
300 PM MDT THU JUN 22 2017

UTZ001>011-023>025-222200-

NORTHERN UTAH

CITY           SKY/WX    TMP DP  RH WIND       PRES   REMARKS
BRIGHAM CITY     N/A     82  31  15 SW7       30.03F
DUGWAY         SUNNY     88  22   9 NW17G25   30.01
HILL AFB       SUNNY     80  35  20 W8        30.07F
LOGAN            N/A     83  38  20 VRB5      30.03F
OGDEN            N/A     80  33  18 CALM      30.04F
SALT LAKE CITY   N/A     85  35  16 N12       30.03F
TOOELE VALLEY    N/A     81  41  24 N12G18    30.05F
WENDOVER         N/A     86  31  13 SE12      30.03F
HEBER CITY       N/A     86  32  14 SW14      30.05S
WEST JORDAN      N/A     81  48  31 NW13G21   30.06F

$$

UTZ011>015-024>027-222200-

CENTRAL/NORTHEAST UTAH

CITY           SKY/WX    TMP DP  RH WIND       PRES   REMARKS
PROVO AIRPORT    N/A     83  35  18 W6        30.03F
DELTA            N/A     90  23   9 N8G18     30.02F
PRICE            N/A     92  34  13 N16G28    30.01F
RICHFIELD      SUNNY     90  45  20 NE6G14    30.04F
ROOSEVELT      SUNNY     95  28   9 W25G37    29.93S
VERNAL         SUNNY     96  43  16 NE12G20   29.90F HX  92

$$

UTZ013>016-019>022-027-222200-

SOUTHERN UTAH

CITY           SKY/WX    TMP DP  RH WIND       PRES   REMARKS
BRYCE CANYON   PTSUNNY   83  28  13 NW20G28   30.20F
CEDAR CITY       N/A     94  33  11 N9G17     30.05F
MILFORD          N/A     94  25   8 NE15G24   30.03F
ST GEORGE        N/A    107  19   4 NW8G22    29.78F HX  98
HANKSVILLE       N/A    102  30   8 NW17G23   29.87F HX  95
KANAB          SUNNY    100  18   5 SW18G25   30.00F HX  93
BLANDING         N/A     97  21   6 W13G26    30.04F HX  90

$$

REGIONAL REPORTS     COLORADO/ARIZONA

CITY           SKY/WX    TMP DP  RH WIND       PRES   REMARKS
CRAIG, CO      SUNNY     89  30  12 NW10      29.99F
GRAND JUNCTION SUNNY    101  32   9 NW20G25   29.84F HX  95
RIFLE, CO      LGT RAIN  87  28  12 N7G32     29.93R
MONTROSE, CO   CLOUDY    98  19   6 W21G26    29.93F HX  91
CORTEZ, CO     SUNNY     98   5   3 W20G29    29.99F HX  90
COLORADO CITY    N/A    100  28   8 NW10G20   30.00F HX  94
PAGE, AZ         N/A    105  13   3 NW13G24   29.86F HX  96
GRAND CANYON     N/A     94  17   6 W12G30    30.14S
KINGMAN, AZ      N/A    106  33   8 SW20G26   29.89F HX  99
FLAGSTAFF, AZ    N/A     87  25  10 SW13G24   30.17F

$$

REGIONAL REPORTS    NEVADA/IDAHO/WYOMING

CITY           SKY/WX    TMP DP  RH WIND       PRES   REMARKS
LAS VEGAS, NV    N/A    110   0   2 VRB7      29.73F HX 100
ELY, NY          N/A     87  35  15 NW8G23    30.13F
ELKO, NV         N/A     85  22  10 W10G18    30.11F
POCATELLO, ID  SUNNY     76  40  27 W9        30.10F
BURLEY, ID       N/A     75  30  19 W13G23    30.09F
FORT BRIDGER,    N/A     81  29  15 W22G29    30.16S
EVANSTON, WY   SUNNY     76  35  22 W17G28    30.17S
ROCK SPRINGS,  SUNNY     82  21  10 W26G39    30.05F
KEMMERER, WY     N/A     73  30  20 NW20G28   30.15F

$$




USA.gov is the U.S. government's official web portal to all federal, state and local government web resources and services.